Location: Newark
(41.7772°N, 74.7403°W)
Time: 13:10:45
(UTC+00:00)

Transit 4A - Pass Details

Date: 31 May 2020
Orbit: 866 x 978 km, 66.8° (Epoch: 06 July)

Event Time Altitude Azimuth Distance (km) Brightness Sun altitude
Exits shadow 05:37:32 34° 119° (ESE) 1,401 8.6 -25.5°
Maximum altitude 05:37:58 34° 110° (ESE) 1,391 8.7 -25.5°
Drops below altitude 10° 05:43:12 10° 47° (NE) 2,546 10.9 -25.3°
Sets 05:45:54 0° 39° (NE) 3,504 11.9 -25.2°
